| time (UTC) | temp F | wind direction | speed knots | gust knots | rain 1hr in | rain 24hr in | rain mn in | humidity % | barometer mb |
| 20260906031919 | 70 | 142 | 0.0 | 0.9 | 0.00 | 0.04 | 0.04 | 91 | 1011.8 |
| 20260906031414 | 71 | 203 | 0.0 | 0.9 | 0.00 | 0.04 | 0.04 | 91 | 1012.0 |
| 20260906030909 | 71 | 171 | 0.0 | 0.0 | 0.00 | 0.04 | 0.04 | 91 | 1011.7 |
| 20260906030404 | 71 | 182 | 0.0 | 0.0 | 0.00 | 0.04 | 0.04 | 91 | 1011.9 |
| 20260906025858 | 71 | 184 | 0.0 | 0.0 | 0.00 | 0.04 | 0.04 | 91 | 1011.7 |
| 20260906025353 | 71 | 201 | 0.0 | 0.9 | 0.00 | 0.04 | 0.04 | 91 | 1011.8 |
| 20260906024852 | 71 | 188 | 0.9 | 0.9 | 0.00 | 0.04 | 0.04 | 91 | 1011.6 |
| 20260906024351 | 71 | 200 | 0.9 | 1.7 | 0.00 | 0.04 | 0.04 | 91 | 1011.5 |
| 20260906023846 | 71 | 176 | 0.0 | 0.9 | 0.00 | 0.04 | 0.04 | 90 | 1011.5 |
| 20260906023343 | 71 | 307 | 0.9 | 1.7 | 0.00 | 0.04 | 0.04 | 90 | 1011.6 |
| 20260906022837 | 71 | 357 | 1.7 | 1.7 | 0.00 | 0.04 | 0.04 | 90 | 1011.7 |
| 20260906022332 | 71 | 195 | 0.0 | 0.0 | 0.00 | 0.04 | 0.04 | 90 | 1011.6 |
| 20260906021828 | 71 | 195 | 0.0 | 0.0 | 0.00 | 0.04 | 0.04 | 90 | 1011.5 |
| 20260906021327 | 71 | 187 | 0.0 | 0.0 | 0.00 | 0.04 | 0.04 | 90 | 1011.5 |
| 20260906020821 | 71 | 178 | 0.0 | 0.0 | 0.00 | 0.04 | 0.04 | 90 | 1011.5 |
| 20260906020321 | 71 | 180 | 0.0 | 0.0 | 0.00 | 0.04 | 0.04 | 90 | 1011.4 |
| 20260906015816 | 71 | 186 | 0.0 | 0.0 | 0.00 | 0.04 | 0.04 | 90 | 1011.3 |
| 20260906015314 | 71 | 180 | 0.0 | 0.0 | 0.00 | 0.04 | 0.04 | 90 | 1011.4 |
| 20260906014809 | 71 | 185 | 0.0 | 0.0 | 0.00 | 0.04 | 0.04 | 90 | 1011.3 |
| 20260906014304 | 72 | 187 | 0.0 | 0.0 | 0.00 | 0.04 | 0.04 | 90 | 1011.3 |
| 20260906013800 | 71 | 275 | 0.0 | 0.0 | 0.00 | 0.04 | 0.04 | 90 | 1011.5 |
| 20260906013255 | 71 | 207 | 0.0 | 0.0 | 0.00 | 0.04 | 0.04 | 90 | 1011.5 |
| 20260906012750 | 72 | 178 | 0.0 | 0.0 | 0.00 | 0.04 | 0.04 | 90 | 1011.5 |
| 20260906012245 | 72 | 186 | 0.0 | 0.0 | 0.00 | 0.04 | 0.04 | 90 | 1011.4 |
| 20260906011741 | 73 | 181 | 0.0 | 0.0 | 0.00 | 0.04 | 0.04 | 90 | 1011.3 |
| 20260906011240 | 73 | 191 | 0.0 | 0.0 | 0.00 | 0.04 | 0.04 | 90 | 1011.2 |
| 20260906010736 | 73 | 159 | 0.0 | 0.0 | 0.00 | 0.04 | 0.04 | 89 | 1011.0 |
| 20260906010232 | 73 | 35 | 0.0 | 0.0 | 0.00 | 0.04 | 0.04 | 89 | 1011.2 |
| 20260906005727 | 73 | 334 | 0.9 | 0.9 | 0.00 | 0.04 | 0.04 | 89 | 1011.1 |
| 20260906005226 | 73 | 331 | 0.9 | 1.7 | 0.00 | 0.04 | 0.04 | 89 | 1010.9 |
| 20260906004726 | 73 | 64 | 0.9 | 0.9 | 0.00 | 0.04 | 0.04 | 89 | 1011.1 |
| 20260906004221 | 73 | 140 | 0.0 | 0.0 | 0.00 | 0.04 | 0.04 | 89 | 1011.1 |
| 20260906003716 | 74 | 194 | 0.0 | 0.0 | 0.00 | 0.04 | 0.04 | 89 | 1010.9 |
| 20260906003212 | 74 | 190 | 0.0 | 0.0 | 0.00 | 0.04 | 0.04 | 89 | 1011.0 |
| 20260906002711 | 74 | 210 | 0.0 | 0.0 | 0.00 | 0.04 | 0.04 | 89 | 1010.8 |
| 20260906002206 | 74 | 180 | 0.0 | 0.0 | 0.00 | 0.04 | 0.04 | 89 | 1010.9 |
| 20260906001702 | 74 | 186 | 0.0 | 0.0 | 0.00 | 0.04 | 0.04 | 89 | 1011.1 |
| 20260906001202 | 75 | 186 | 0.0 | 0.0 | 0.00 | 0.04 | 0.04 | 88 | 1010.7 |
| 20260906000657 | 75 | 208 | 0.9 | 1.7 | 0.00 | 0.04 | 0.04 | 88 | 1010.6 |
| 20260906000152 | 75 | 170 | 0.0 | 0.0 | 0.00 | 0.04 | 0.04 | 88 | 1010.7 |
| 20260905235651 | 75 | 198 | 0.0 | 1.7 | 0.00 | 0.04 | 0.04 | 88 | 1010.4 |
| 20260905235146 | 76 | 334 | 0.0 | 0.0 | 0.00 | 0.04 | 0.04 | 88 | 1010.5 |
| 20260905234641 | 76 | 61 | 1.7 | 1.7 | 0.00 | 0.04 | 0.04 | 87 | 1010.4 |
| 20260905234137 | 76 | 242 | 2.6 | 5.2 | 0.00 | 0.04 | 0.04 | 87 | 1010.4 |
| 20260905233632 | 76 | 217 | 0.0 | 0.0 | 0.00 | 0.04 | 0.04 | 87 | 1010.4 |
| 20260905233126 | 77 | 186 | 0.0 | 0.0 | 0.00 | 0.04 | 0.04 | 87 | 1010.3 |
| 20260905232622 | 77 | 224 | 0.0 | 0.0 | 0.00 | 0.04 | 0.04 | 86 | 1010.2 |
| 20260905232117 | 78 | 206 | 0.0 | 0.9 | 0.00 | 0.04 | 0.04 | 85 | 1010.2 |
| 20260905231617 | 78 | 330 | 1.7 | 4.3 | 0.00 | 0.04 | 0.04 | 85 | 1010.2 |
| 20260905231114 | 78 | 245 | 0.0 | 2.6 | 0.00 | 0.04 | 0.04 | 85 | 1010.2 |
| 20260905230609 | 78 | 303 | 0.9 | 4.3 | 0.00 | 0.04 | 0.04 | 84 | 1009.9 |
| 20260905230107 | 78 | 341 | 2.6 | 4.3 | 0.00 | 0.04 | 0.04 | 84 | 1010.1 |
| 20260905225607 | 78 | 304 | 2.6 | 2.6 | 0.00 | 0.04 | 0.04 | 83 | 1010.1 |
| 20260905225102 | 79 | 274 | 3.5 | 4.3 | 0.00 | 0.04 | 0.04 | 82 | 1010.2 |
| 20260905224602 | 79 | 357 | 1.7 | 4.3 | 0.00 | 0.04 | 0.04 | 82 | 1010.2 |
| 20260905224101 | 79 | 325 | 1.7 | 2.6 | 0.00 | 0.04 | 0.04 | 82 | 1010.2 |
| 20260905223559 | 79 | 256 | 2.6 | 2.6 | 0.00 | 0.04 | 0.04 | 81 | 1010.3 |
| 20260905223054 | 79 | 348 | 2.6 | 6.1 | 0.00 | 0.04 | 0.04 | 81 | 1010.4 |
| 20260905222554 | 79 | 26 | 1.7 | 1.7 | 0.00 | 0.04 | 0.04 | 81 | 1010.2 |
| 20260905222050 | 79 | 234 | 4.3 | 6.1 | 0.00 | 0.04 | 0.04 | 80 | 1009.9 |
| 20260905221546 | 80 | 330 | 4.3 | 7.0 | 0.00 | 0.04 | 0.04 | 80 | 1010.2 |
| 20260905221042 | 80 | 352 | 0.9 | 1.7 | 0.00 | 0.04 | 0.04 | 81 | 1010.1 |
| 20260905220537 | 80 | 304 | 2.6 | 5.2 | 0.00 | 0.04 | 0.04 | 80 | 1010.2 |
| 20260905220033 | 80 | 15 | 0.9 | 4.3 | 0.00 | 0.04 | 0.04 | 80 | 1010.4 |
| 20260905215532 | 80 | 305 | 3.5 | 4.3 | 0.00 | 0.04 | 0.04 | 80 | 1010.3 |
| 20260905215029 | 80 | 286 | 0.0 | 1.7 | 0.00 | 0.04 | 0.04 | 81 | 1010.3 |
| 20260905214525 | 80 | 313 | 2.6 | 5.2 | 0.00 | 0.04 | 0.04 | 79 | 1010.5 |
| 20260905214019 | 80 | 310 | 2.6 | 4.3 | 0.00 | 0.04 | 0.04 | 80 | 1010.4 |
| 20260905213515 | 80 | 355 | 1.7 | 2.6 | 0.00 | 0.04 | 0.04 | 81 | 1010.6 |
| 20260905213010 | 81 | 311 | 2.6 | 4.3 | 0.00 | 0.04 | 0.04 | 80 | 1010.6 |
| 20260905212505 | 80 | 241 | 0.9 | 2.6 | 0.00 | 0.04 | 0.04 | 81 | 1010.8 |
| 20260905212004 | 80 | 239 | 0.9 | 2.6 | 0.00 | 0.04 | 0.04 | 81 | 1011.1 |
| 20260905211500 | 79 | 304 | 0.9 | 4.3 | 0.00 | 0.04 | 0.04 | 83 | 1010.9 |
| 20260905210955 | 78 | 222 | 1.7 | 2.6 | 0.00 | 0.04 | 0.04 | 83 | 1010.9 |
| 20260905210451 | 78 | 176 | 0.0 | 0.9 | 0.00 | 0.04 | 0.04 | 84 | 1011.0 |
| 20260905205950 | 78 | 209 | 0.0 | 2.6 | 0.00 | 0.04 | 0.04 | 84 | 1011.0 |
| 20260905205445 | 76 | 266 | 0.9 | 2.6 | 0.00 | 0.04 | 0.04 | 85 | 1011.0 |
| 20260905204943 | 76 | 303 | 0.9 | 2.6 | 0.00 | 0.04 | 0.04 | 86 | 1011.0 |
| 20260905204440 | 76 | 204 | 0.0 | 1.7 | 0.00 | 0.04 | 0.04 | 86 | 1011.4 |
| 20260905203939 | 75 | 17 | 0.9 | 1.7 | 0.00 | 0.04 | 0.04 | 87 | 1011.4 |
| 20260905203434 | 75 | 315 | 0.9 | 1.7 | 0.00 | 0.04 | 0.04 | 88 | 1011.7 |
| 20260905202930 | 74 | 248 | 2.6 | 2.6 | 0.00 | 0.04 | 0.04 | 88 | 1011.8 |
| 20260905202425 | 74 | 265 | 2.6 | 4.3 | 0.00 | 0.04 | 0.04 | 88 | 1011.7 |
| 20260905201920 | 74 | 312 | 2.6 | 6.1 | 0.00 | 0.04 | 0.04 | 89 | 1011.4 |
| 20260905201416 | 73 | 300 | 3.5 | 5.2 | 0.00 | 0.04 | 0.04 | 89 | 1011.3 |
| 20260905200915 | 73 | 243 | 2.6 | 4.3 | 0.00 | 0.04 | 0.04 | 89 | 1011.3 |
| 20260905200411 | 73 | 181 | 1.7 | 5.2 | 0.00 | 0.04 | 0.04 | 89 | 1011.5 |
| 20260905195909 | 72 | 244 | 0.0 | 0.9 | 0.00 | 0.04 | 0.04 | 89 | 1011.6 |
| 20260905195405 | 72 | 284 | 0.9 | 1.7 | 0.00 | 0.04 | 0.04 | 89 | 1011.5 |
| 20260905194900 | 72 | 219 | 0.9 | 0.9 | 0.00 | 0.04 | 0.04 | 89 | 1011.2 |
| 20260905194400 | 72 | 241 | 0.0 | 0.9 | 0.00 | 0.04 | 0.04 | 89 | 1011.3 |
| 20260905193900 | 71 | 52 | 0.9 | 2.6 | 0.00 | 0.04 | 0.04 | 89 | 1011.0 |
| 20260905193355 | 71 | 318 | 0.0 | 1.7 | 0.00 | 0.04 | 0.04 | 88 | 1011.0 |
| 20260905192850 | 71 | 344 | 3.5 | 4.3 | 0.00 | 0.04 | 0.04 | 88 | 1011.3 |
| 20260905192345 | 71 | 319 | 1.7 | 5.2 | 0.00 | 0.04 | 0.04 | 88 | 1011.4 |
| 20260905191845 | 71 | 42 | 0.9 | 1.7 | 0.00 | 0.04 | 0.04 | 87 | 1011.4 |
| 20260905191344 | 71 | 275 | 0.9 | 1.7 | 0.05 | 0.04 | 0.04 | 86 | 1011.5 |
| 20260905190843 | 72 | 275 | 0.9 | 1.7 | 0.05 | 0.04 | 0.04 | 85 | 1011.3 |
| 20260905190336 | 73 | 346 | 1.7 | 5.2 | 0.00 | 0.03 | 0.03 | 84 | 1011.6 |
| 20260905185835 | 74 | 236 | 0.9 | 1.7 | 0.12 | 0.03 | 0.03 | 82 | 1011.8 |
| 20260905185331 | 75 | 168 | 4.3 | 7.8 | 0.17 | 0.03 | 0.03 | 78 | 1012.2 |
| 20260905184830 | 78 | 165 | 5.2 | 7.0 | 0.05 | 0.01 | 0.01 | 76 | 1012.6 |
| 20260905184330 | 80 | 76 | 0.9 | 9.6 | 0.00 | 0.00 | 0.00 | 69 | 1012.8 |
| 20260905183828 | 83 | 27 | 11.3 | 19.1 | 0.00 | 0.00 | 0.00 | 63 | 1012.2 |
| 20260905183323 | 87 | 6 | 10.4 | 23.5 | 0.00 | 0.00 | 0.00 | 62 | 1012.2 |
| 20260905182818 | 89 | 36 | 3.5 | 7.0 | 0.00 | 0.00 | 0.00 | 63 | 1011.8 |
| 20260905182318 | 91 | 301 | 2.6 | 4.3 | 0.00 | 0.00 | 0.00 | 62 | 1011.2 |
| 20260905181813 | 91 | 1 | 5.2 | 6.1 | 0.00 | 0.00 | 0.00 | 59 | 1010.9 |
| 20260905181313 | 92 | 344 | 3.5 | 5.2 | 0.00 | 0.00 | 0.00 | 58 | 1010.8 |
| 20260905180812 | 93 | 18 | 3.5 | 7.0 | 0.00 | 0.00 | 0.00 | 56 | 1010.8 |
| 20260905180307 | 94 | 19 | 2.6 | 6.1 | 0.00 | 0.00 | 0.00 | 57 | 1010.9 |
| 20260905175802 | 94 | 287 | 2.6 | 5.2 | 0.00 | 0.00 | 0.00 | 56 | 1011.3 |
| 20260905175256 | 96 | 358 | 6.1 | 8.7 | 0.00 | 0.00 | 0.00 | 54 | 1011.4 |
| 20260905174752 | 95 | 357 | 3.5 | 6.1 | 0.00 | 0.00 | 0.00 | 55 | 1011.6 |
| 20260905174248 | 95 | 6 | 4.3 | 7.8 | 0.00 | 0.00 | 0.00 | 53 | 1011.6 |
| 20260905173743 | 95 | 10 | 4.3 | 5.2 | 0.00 | 0.00 | 0.00 | 53 | 1011.5 |
| 20260905173239 | 95 | 315 | 4.3 | 5.2 | 0.00 | 0.00 | 0.00 | 55 | 1011.9 |
| 20260905172733 | 95 | 321 | 4.3 | 8.7 | 0.00 | 0.00 | 0.00 | 55 | 1012.0 |
| 20260905172232 | 95 | 238 | 0.9 | 2.6 | 0.00 | 0.00 | 0.00 | 56 | 1011.9 |
| 20260905171729 | 94 | 250 | 2.6 | 5.2 | 0.00 | 0.00 | 0.00 | 58 | 1012.1 |
| 20260905171225 | 93 | 251 | 2.6 | 5.2 | 0.00 | 0.00 | 0.00 | 56 | 1012.0 |
| 20260905170721 | 93 | 353 | 1.7 | 2.6 | 0.00 | 0.00 | 0.00 | 59 | 1012.2 |
| 20260905170221 | 94 | 340 | 4.3 | 5.2 | 0.00 | 0.00 | 0.00 | 59 | 1012.3 |
| 20260905165715 | 94 | 5 | 3.5 | 6.1 | 0.00 | 0.00 | 0.00 | 59 | 1012.2 |
| 20260905165210 | 94 | 348 | 6.1 | 7.8 | 0.00 | 0.00 | 0.00 | 60 | 1012.4 |
| 20260905164705 | 94 | 350 | 4.3 | 5.2 | 0.00 | 0.00 | 0.00 | 60 | 1012.5 |
| 20260905164205 | 94 | 319 | 4.3 | 6.1 | 0.00 | 0.00 | 0.00 | 59 | 1012.4 |
| 20260905163701 | 94 | 242 | 3.5 | 8.7 | 0.00 | 0.00 | 0.00 | 59 | 1012.5 |
| 20260905163157 | 94 | 39 | 2.6 | 2.6 | 0.00 | 0.00 | 0.00 | 62 | 1012.6 |
| 20260905162653 | 94 | 15 | 1.7 | 6.1 | 0.00 | 0.00 | 0.00 | 62 | 1012.9 |
| 20260905162152 | 94 | 227 | 0.0 | 2.6 | 0.00 | 0.00 | 0.00 | 60 | 1012.6 |
| 20260905161647 | 94 | 123 | 0.9 | 1.7 | 0.00 | 0.00 | 0.00 | 61 | 1012.7 |
| 20260905161144 | 94 | 239 | 0.9 | 1.7 | 0.00 | 0.00 | 0.00 | 63 | 1012.8 |
| 20260905160639 | 94 | 141 | 0.0 | 0.9 | 0.00 | 0.00 | 0.00 | 63 | 1012.8 |
| 20260905160138 | 93 | 183 | 0.9 | 1.7 | 0.00 | 0.00 | 0.00 | 63 | 1012.9 |
| 20260905155633 | 93 | 188 | 0.0 | 1.7 | 0.00 | 0.00 | 0.00 | 65 | 1012.8 |
| 20260905155132 | 92 | 166 | 0.0 | 1.7 | 0.00 | 0.00 | 0.00 | 66 | 1012.8 |
| 20260905154632 | 92 | 224 | 1.7 | 2.6 | 0.00 | 0.00 | 0.00 | 64 | 1013.3 |
| 20260905154128 | 92 | 41 | 0.9 | 2.6 | 0.00 | 0.00 | 0.00 | 65 | 1013.0 |
| 20260905153623 | 92 | 98 | 0.9 | 1.7 | 0.00 | 0.00 | 0.00 | 65 | 1013.0 |
| 20260905153119 | 92 | 289 | 1.7 | 2.6 | 0.00 | 0.00 | 0.00 | 65 | 1012.9 |
| 20260905152613 | 91 | 201 | 0.9 | 1.7 | 0.00 | 0.00 | 0.00 | 66 | 1012.9 |
| 20260905152108 | 91 | 211 | 1.7 | 2.6 | 0.00 | 0.00 | 0.00 | 66 | 1012.7 |
| 20260905151603 | 91 | 323 | 0.9 | 1.7 | 0.00 | 0.00 | 0.00 | 67 | 1013.0 |
| 20260905151058 | 90 | 173 | 0.9 | 2.6 | 0.00 | 0.00 | 0.00 | 68 | 1012.8 |
| 20260905150553 | 90 | 330 | 2.6 | 2.6 | 0.00 | 0.00 | 0.00 | 69 | 1012.8 |
| 20260905150051 | 89 | 253 | 0.9 | 1.7 | 0.00 | 0.00 | 0.00 | 70 | 1013.0 |
| 20260905145545 | 89 | 246 | 1.7 | 4.3 | 0.00 | 0.00 | 0.00 | 71 | 1013.0 |
| 20260905145044 | 89 | 182 | 0.9 | 2.6 | 0.00 | 0.00 | 0.00 | 71 | 1012.9 |
| 20260905144539 | 88 | 193 | 0.0 | 2.6 | 0.00 | 0.00 | 0.00 | 72 | 1013.1 |
| 20260905144038 | 88 | 256 | 0.9 | 1.7 | 0.00 | 0.00 | 0.00 | 73 | 1012.7 |
| 20260905143538 | 88 | 1 | 2.6 | 2.6 | 0.00 | 0.00 | 0.00 | 72 | 1013.3 |
| 20260905143033 | 88 | 206 | 0.9 | 1.7 | 0.00 | 0.00 | 0.00 | 73 | 1013.0 |
| 20260905142531 | 88 | 169 | 0.0 | 1.7 | 0.00 | 0.00 | 0.00 | 74 | 1012.9 |
| 20260905142027 | 87 | 196 | 0.9 | 1.7 | 0.00 | 0.00 | 0.00 | 75 | 1013.1 |
| 20260905141521 | 87 | 174 | 0.9 | 2.6 | 0.00 | 0.00 | 0.00 | 76 | 1012.9 |
| 20260905141018 | 87 | 187 | 0.9 | 0.9 | 0.00 | 0.00 | 0.00 | 77 | 1013.0 |
| 20260905140513 | 85 | 164 | 0.0 | 0.9 | 0.00 | 0.00 | 0.00 | 79 | 1013.1 |
| 20260905140011 | 84 | 187 | 0.9 | 0.9 | 0.00 | 0.00 | 0.00 | 80 | 1013.0 |
| 20260905135507 | 84 | 198 | 0.0 | 0.0 | 0.00 | 0.00 | 0.00 | 84 | 1013.1 |
| 20260905135007 | 83 | 158 | 0.0 | 0.0 | 0.00 | 0.00 | 0.00 | 86 | 1013.3 |
| 20260905134502 | 82 | 208 | 0.0 | 0.0 | 0.00 | 0.00 | 0.00 | 87 | 1013.3 |
| 20260905134001 | 81 | 83 | 0.0 | 0.0 | 0.00 | 0.00 | 0.00 | 88 | 1013.3 |
| 20260905133456 | 80 | 228 | 0.9 | 1.7 | 0.00 | 0.00 | 0.00 | 88 | 1013.4 |
| 20260905132955 | 81 | 285 | 0.9 | 0.9 | 0.00 | 0.00 | 0.00 | 89 | 1013.0 |
| 20260905132451 | 80 | 185 | 0.0 | 0.9 | 0.00 | 0.00 | 0.00 | 90 | 1013.1 |
| 20260905131945 | 79 | 348 | 1.7 | 1.7 | 0.00 | 0.00 | 0.00 | 90 | 1013.4 |
| 20260905131442 | 79 | 165 | 0.0 | 1.7 | 0.00 | 0.00 | 0.00 | 90 | 1013.6 |
| 20260905130942 | 79 | 310 | 1.7 | 1.7 | 0.00 | 0.00 | 0.00 | 90 | 1013.5 |
| 20260905130441 | 79 | 165 | 0.0 | 0.0 | 0.00 | 0.00 | 0.00 | 90 | 1013.4 |
| 20260905125941 | 79 | 193 | 0.0 | 0.0 | 0.00 | 0.00 | 0.00 | 91 | 1013.5 |
| 20260905125436 | 78 | 158 | 0.0 | 0.0 | 0.00 | 0.00 | 0.00 | 92 | 1013.6 |
| 20260905124932 | 78 | 160 | 0.0 | 0.0 | 0.00 | 0.00 | 0.00 | 92 | 1013.4 |
| 20260905124428 | 78 | 164 | 0.0 | 0.0 | 0.00 | 0.00 | 0.00 | 93 | 1013.4 |
| 20260905123928 | 77 | 156 | 0.0 | 0.0 | 0.00 | 0.00 | 0.00 | 93 | 1013.4 |
| 20260905123425 | 77 | 156 | 0.0 | 0.0 | 0.00 | 0.00 | 0.00 | 93 | 1013.1 |
| 20260905122920 | 76 | 141 | 0.0 | 0.0 | 0.00 | 0.00 | 0.00 | 93 | 1013.4 |
| 20260905122419 | 75 | 131 | 0.0 | 0.9 | 0.00 | 0.00 | 0.00 | 93 | 1013.0 |
| 20260905121915 | 75 | 161 | 0.0 | 0.0 | 0.00 | 0.00 | 0.00 | 93 | 1012.9 |
| 20260905121410 | 75 | 347 | 0.9 | 0.9 | 0.00 | 0.00 | 0.00 | 93 | 1013.0 |
| 20260905120910 | 74 | 164 | 0.0 | 0.0 | 0.00 | 0.00 | 0.00 | 93 | 1013.3 |
| 20260905120410 | 74 | 168 | 0.0 | 0.0 | 0.00 | 0.00 | 0.00 | 93 | 1013.0 |
| 20260905115905 | 73 | 167 | 0.0 | 0.0 | 0.00 | 0.00 | 0.00 | 93 | 1012.9 |
| 20260905115404 | 72 | 162 | 0.0 | 0.0 | 0.00 | 0.00 | 0.00 | 93 | 1012.8 |
| 20260905114859 | 71 | 158 | 0.0 | 0.0 | 0.00 | 0.00 | 0.00 | 93 | 1012.8 |
| 20260905114358 | 71 | 178 | 0.0 | 0.0 | 0.00 | 0.00 | 0.00 | 93 | 1012.9 |
| 20260905113858 | 71 | 172 | 0.0 | 0.0 | 0.00 | 0.00 | 0.00 | 93 | 1012.7 |
| 20260905113353 | 71 | 177 | 0.0 | 0.0 | 0.00 | 0.00 | 0.00 | 93 | 1012.7 |
| 20260905112848 | 71 | 177 | 0.0 | 0.0 | 0.00 | 0.00 | 0.00 | 93 | 1012.7 |
| 20260905112343 | 71 | 177 | 0.0 | 0.0 | 0.00 | 0.00 | 0.00 | 92 | 1012.7 |
| 20260905111839 | 71 | 173 | 0.0 | 0.0 | 0.00 | 0.00 | 0.00 | 92 | 1012.6 |
| 20260905111333 | 71 | 198 | 0.0 | 0.0 | 0.00 | 0.00 | 0.00 | 93 | 1012.7 |
| 20260905110832 | 71 | 190 | 0.0 | 0.0 | 0.00 | 0.00 | 0.00 | 92 | 1012.6 |
| 20260905110326 | 70 | 62 | 0.0 | 0.0 | 0.00 | 0.00 | 0.00 | 92 | 1012.4 |
| 20260905105822 | 70 | 180 | 0.0 | 0.0 | 0.00 | 0.00 | 0.00 | 92 | 1012.2 |
| 20260905105321 | 70 | 167 | 0.0 | 0.0 | 0.00 | 0.00 | 0.00 | 92 | 1012.2 |
| 20260905104815 | 71 | 173 | 0.0 | 0.0 | 0.00 | 0.00 | 0.00 | 93 | 1012.2 |
| 20260905104312 | 71 | 180 | 0.0 | 0.0 | 0.00 | 0.00 | 0.00 | 92 | 1011.9 |
| 20260905103811 | 71 | 183 | 0.0 | 0.0 | 0.00 | 0.00 | 0.00 | 92 | 1012.0 |
| 20260905103306 | 71 | 173 | 0.0 | 0.0 | 0.00 | 0.00 | 0.00 | 92 | 1012.0 |
| 20260905102802 | 71 | 174 | 0.0 | 0.0 | 0.00 | 0.00 | 0.00 | 92 | 1011.8 |
| 20260905102259 | 71 | 176 | 0.0 | 0.9 | 0.00 | 0.00 | 0.00 | 92 | 1011.8 |
| 20260905101758 | 72 | 153 | 0.0 | 0.9 | 0.00 | 0.00 | 0.00 | 92 | 1011.9 |
| 20260905101257 | 72 | 201 | 0.0 | 1.7 | 0.00 | 0.00 | 0.00 | 92 | 1011.8 |
| 20260905100752 | 72 | 215 | 0.0 | 0.0 | 0.00 | 0.00 | 0.00 | 92 | 1011.4 |
| 20260905100248 | 72 | 143 | 0.0 | 0.0 | 0.00 | 0.00 | 0.00 | 92 | 1011.7 |
| 20260905095747 | 72 | 299 | 0.0 | 0.0 | 0.00 | 0.00 | 0.00 | 92 | 1011.7 |
| 20260905095247 | 72 | 205 | 0.0 | 0.9 | 0.00 | 0.00 | 0.00 | 92 | 1011.7 |
| 20260905094742 | 72 | 314 | 0.9 | 1.7 | 0.00 | 0.00 | 0.00 | 92 | 1011.8 |
| 20260905094238 | 72 | 209 | 0.0 | 0.0 | 0.00 | 0.00 | 0.00 | 92 | 1011.8 |
| 20260905093736 | 72 | 98 | 0.0 | 0.0 | 0.00 | 0.00 | 0.00 | 92 | 1011.8 |
| 20260905093232 | 72 | 336 | 0.0 | 0.9 | 0.00 | 0.00 | 0.00 | 92 | 1011.9 |
| 20260905092727 | 71 | 322 | 0.0 | 0.0 | 0.00 | 0.00 | 0.00 | 92 | 1011.8 |
| 20260905092223 | 71 | 185 | 0.0 | 0.0 | 0.00 | 0.00 | 0.00 | 92 | 1011.8 |
| 20260905091722 | 71 | 195 | 0.0 | 0.0 | 0.00 | 0.00 | 0.00 | 92 | 1011.8 |
| 20260905091218 | 72 | 174 | 0.0 | 0.0 | 0.00 | 0.00 | 0.00 | 92 | 1011.7 |
| 20260905090717 | 72 | 181 | 0.0 | 0.0 | 0.00 | 0.00 | 0.00 | 92 | 1011.9 |
| 20260905090213 | 72 | 185 | 0.0 | 0.0 | 0.00 | 0.00 | 0.00 | 92 | 1011.7 |
| 20260905085711 | 72 | 189 | 0.0 | 0.0 | 0.00 | 0.00 | 0.00 | 92 | 1011.7 |
| 20260905085206 | 71 | 171 | 0.0 | 0.0 | 0.00 | 0.00 | 0.00 | 92 | 1011.9 |
| 20260905084701 | 72 | 170 | 0.0 | 0.0 | 0.00 | 0.00 | 0.00 | 92 | 1012.0 |
| 20260905084201 | 72 | 181 | 0.0 | 0.0 | 0.00 | 0.00 | 0.00 | 92 | 1012.0 |
| 20260905083655 | 72 | 178 | 0.0 | 0.0 | 0.00 | 0.00 | 0.00 | 92 | 1012.2 |
| 20260905083152 | 72 | 185 | 0.0 | 0.0 | 0.00 | 0.00 | 0.00 | 92 | 1012.2 |
| 20260905082647 | 73 | 184 | 0.0 | 0.0 | 0.00 | 0.00 | 0.00 | 92 | 1012.2 |
| 20260905082142 | 73 | 277 | 0.9 | 1.7 | 0.00 | 0.00 | 0.00 | 92 | 1012.3 |
| 20260905081637 | 73 | 314 | 0.0 | 0.0 | 0.00 | 0.00 | 0.00 | 92 | 1012.2 |
| 20260905081132 | 72 | 229 | 0.0 | 0.0 | 0.00 | 0.00 | 0.00 | 92 | 1012.5 |
| 20260905080627 | 72 | 229 | 0.0 | 0.0 | 0.00 | 0.00 | 0.00 | 92 | 1012.4 |
| 20260905080121 | 72 | 179 | 0.0 | 0.0 | 0.00 | 0.00 | 0.00 | 92 | 1012.4 |
| 20260905075620 | 72 | 134 | 0.0 | 0.0 | 0.00 | 0.00 | 0.00 | 92 | 1012.4 |
| 20260905075120 | 72 | 180 | 0.0 | 0.0 | 0.00 | 0.00 | 0.00 | 92 | 1012.4 |
| 20260905074619 | 72 | 162 | 0.0 | 0.0 | 0.00 | 0.00 | 0.00 | 92 | 1012.5 |
| 20260905074115 | 72 | 155 | 0.0 | 0.0 | 0.00 | 0.00 | 0.00 | 92 | 1012.6 |
| 20260905073610 | 72 | 169 | 0.0 | 0.0 | 0.00 | 0.00 | 0.00 | 92 | 1012.4 |
| 20260905073106 | 73 | 171 | 0.0 | 0.0 | 0.00 | 0.00 | 0.00 | 92 | 1012.5 |
| 20260905072605 | 73 | 168 | 0.0 | 0.0 | 0.00 | 0.00 | 0.00 | 91 | 1012.5 |
| 20260905072101 | 73 | 179 | 0.0 | 0.0 | 0.00 | 0.00 | 0.00 | 91 | 1012.5 |
| 20260905071557 | 73 | 179 | 0.0 | 0.0 | 0.00 | 0.00 | 0.00 | 91 | 1012.6 |
| 20260905071057 | 73 | 169 | 0.0 | 0.0 | 0.00 | 0.00 | 0.00 | 91 | 1012.7 |
| 20260905070552 | 73 | 173 | 0.0 | 0.0 | 0.00 | 0.00 | 0.00 | 91 | 1012.7 |
| 20260905070048 | 73 | 179 | 0.0 | 0.0 | 0.00 | 0.00 | 0.00 | 91 | 1012.8 |
| 20260905065546 | 73 | 179 | 0.0 | 0.0 | 0.00 | 0.00 | 0.00 | 91 | 1012.9 |
| 20260905065042 | 73 | 185 | 0.0 | 0.0 | 0.00 | 0.00 | 0.00 | 91 | 1012.9 |
| 20260905064542 | 73 | 179 | 0.0 | 0.0 | 0.00 | 0.00 | 0.00 | 91 | 1013.0 |
| 20260905064037 | 73 | 180 | 0.0 | 0.0 | 0.00 | 0.00 | 0.00 | 91 | 1013.0 |
| 20260905063536 | 73 | 179 | 0.0 | 0.0 | 0.00 | 0.00 | 0.00 | 91 | 1012.8 |
| 20260905063032 | 74 | 179 | 0.0 | 0.0 | 0.00 | 0.00 | 0.00 | 91 | 1012.8 |
| 20260905062532 | 73 | 179 | 0.0 | 0.0 | 0.00 | 0.00 | 0.00 | 91 | 1013.3 |
| 20260905062027 | 74 | 179 | 0.0 | 0.0 | 0.00 | 0.00 | 0.00 | 91 | 1013.3 |
| 20260905061522 | 74 | 179 | 0.0 | 0.0 | 0.00 | 0.00 | 0.00 | 91 | 1013.4 |
| 20260905061021 | 74 | 179 | 0.0 | 0.0 | 0.00 | 0.00 | 0.00 | 91 | 1013.4 |
| 20260905060517 | 74 | 181 | 0.0 | 0.0 | 0.00 | 0.00 | 0.00 | 91 | 1013.6 |
| 20260905060013 | 74 | 190 | 0.0 | 0.0 | 0.00 | 0.00 | 0.00 | 91 | 1013.7 |
| 20260905055511 | 74 | 191 | 0.0 | 0.0 | 0.00 | 0.00 | 0.00 | 91 | 1013.7 |
| 20260905055006 | 74 | 146 | 0.0 | 0.0 | 0.00 | 0.00 | 0.00 | 91 | 1013.5 |
| 20260905054502 | 74 | 167 | 0.0 | 0.0 | 0.00 | 0.00 | 0.00 | 91 | 1013.7 |
| 20260905053957 | 74 | 154 | 0.0 | 0.0 | 0.00 | 0.00 | 0.00 | 91 | 1013.7 |
| 20260905053451 | 74 | 166 | 0.0 | 0.0 | 0.00 | 0.00 | 0.00 | 91 | 1013.7 |
| 20260905052947 | 74 | 164 | 0.0 | 0.0 | 0.00 | 0.00 | 0.00 | 91 | 1013.8 |
| 20260905052447 | 74 | 163 | 0.0 | 0.0 | 0.00 | 0.00 | 0.00 | 91 | 1013.9 |
| 20260905051946 | 74 | 181 | 0.0 | 0.0 | 0.00 | 0.00 | 0.00 | 91 | 1013.6 |
| 20260905051441 | 74 | 191 | 0.0 | 0.0 | 0.00 | 0.00 | 0.00 | 91 | 1013.7 |
| 20260905050939 | 74 | 154 | 0.0 | 0.0 | 0.00 | 0.00 | 0.00 | 91 | 1014.0 |
| 20260905050429 | 74 | 163 | 0.0 | 0.0 | 0.00 | 0.00 | 0.00 | 91 | 1013.5 |
| 20260905045925 | 75 | 201 | 0.0 | 0.0 | 0.00 | 0.00 | 0.00 | 91 | 1013.7 |
| 20260905045420 | 74 | 172 | 0.0 | 0.0 | 0.00 | 0.00 | 0.00 | 91 | 1013.7 |
| 20260905044915 | 75 | 156 | 0.0 | 0.0 | 0.00 | 0.00 | 0.00 | 91 | 1013.9 |
| 20260905044410 | 74 | 149 | 0.0 | 0.0 | 0.00 | 0.00 | 0.00 | 90 | 1013.8 |
| 20260905043909 | 75 | 161 | 0.0 | 0.0 | 0.00 | 0.00 | 0.00 | 90 | 1013.7 |
| 20260905043404 | 74 | 145 | 0.0 | 0.0 | 0.00 | 0.00 | 0.00 | 90 | 1013.8 |
| 20260905042903 | 75 | 181 | 0.0 | 0.0 | 0.00 | 0.00 | 0.00 | 90 | 1013.8 |
| 20260905042358 | 75 | 180 | 0.0 | 0.0 | 0.00 | 0.00 | 0.00 | 90 | 1013.7 |
| 20260905041853 | 75 | 180 | 0.0 | 0.0 | 0.00 | 0.00 | 0.00 | 90 | 1013.9 |
| 20260905041349 | 75 | 230 | 0.0 | 0.0 | 0.00 | 0.00 | 0.00 | 90 | 1013.8 |
| 20260905040843 | 75 | 209 | 0.0 | 0.0 | 0.00 | 0.00 | 0.00 | 90 | 1013.9 |
| 20260905040342 | 75 | 188 | 0.0 | 0.0 | 0.00 | 0.00 | 0.00 | 90 | 1013.7 |
| 20260905035836 | 75 | 175 | 0.0 | 0.0 | 0.00 | 0.00 | 0.00 | 90 | 1013.6 |
| 20260905035332 | 75 | 168 | 0.0 | 0.0 | 0.00 | 0.00 | 0.00 | 90 | 1013.6 |
| 20260905034828 | 75 | 192 | 0.0 | 0.0 | 0.00 | 0.00 | 0.00 | 90 | 1013.6 |
| 20260905034324 | 75 | 254 | 0.0 | 0.0 | 0.00 | 0.00 | 0.00 | 90 | 1013.6 |
| 20260905033822 | 75 | 165 | 0.0 | 0.0 | 0.00 | 0.00 | 0.00 | 90 | 1013.5 |
| 20260905033318 | 76 | 170 | 0.0 | 0.0 | 0.00 | 0.00 | 0.00 | 90 | 1013.6 |
| 20260905032817 | 76 | 181 | 0.0 | 0.0 | 0.00 | 0.00 | 0.00 | 90 | 1013.4 |
| 20260905032313 | 76 | 185 | 0.0 | 0.0 | 0.00 | 0.00 | 0.00 | 90 | 1013.6 |